Regional Weather Roundup
Issued by NWS Kansas City/Pleasant Hill, MO

Home | Current Version | Previous Version | Graphics & Text | Print | Product List | Glossary Off
Versions: 1 2 3 4 5 6 7 8 9 10 11 12 13 14 15 16 17 18 19 20 21 22 23 24 25 26 27

000
ASUS43 KEAX 230510
RWREAX

WEATHER ROUNDUP FOR EASTERN KANSAS AND NORTHWEST MISSOURI
NATIONAL WEATHER SERVICE KANSAS CITY/PLEASANT HILL MO
1200 AM CDT MON APR 23 2018

KSZ040-057-103>105-MOZ028-029-037-043-230600-
...KANSAS CITY METROPOLITAN AREA...

CITY           SKY/WX    TMP DP  RH WIND       PRES   REMARKS
K.C. INTL      CLOUDY    58  35  42 NE10      30.10F
K.C. DOWNTOWN  PTCLDY    61  35  37 NE7       30.09F
LEES SUMMIT    CLOUDY    57  36  45 NE9       30.09F
OLATHE - IXD   CLOUDY    58  40  51 NE8       30.09F
OLATHE - OJC   CLOUDY    57  39  51 NE12      30.08F
LAWRENCE       CLOUDY    59  42  53 NE8       30.10F

$$

MOZ001>008-011>017-020>025-030>033-038>040-044>046-053-054-230600-
...NORTHERN AND CENTRAL MISSOURI...

CITY           SKY/WX    TMP DP  RH WIND       PRES   REMARKS
ST. JOSEPH     CLOUDY    59  40  49 NE7       30.12F
MOSBY          CLOUDY    57  32  38 NE8       30.10F
WARRENSBURG    CLOUDY    54  37  54 N5        30.08R
WHITEMAN AFB   CLOUDY    55  40  58 N7        30.02F
CLINTON        CLOUDY    57  46  67 NE9       30.06R
SEDALIA        CLOUDY    57  42  57 N9        30.05F
WARSAW         NOT AVBL
CHILLICOTHE      N/A     58  26  29 N7        30.12F
KIRKSVILLE     CLOUDY    56  29  35 NE10      30.12F

$$

MOZ041-047>049-056>058-063>065-088>090-097-230600-
...EASTERN AND SOUTHERN MISSOURI...

CITY           SKY/WX    TMP DP  RH WIND       PRES   REMARKS
ST. LOUIS INTL CLOUDY    58  47  66 NE10      30.04F
SPIRIT OF STL  CLOUDY    58  50  75 E10       30.03S
COLUMBIA       CLOUDY    57  38  48 NE12G23   30.04F
JEFFERSON CITY CLOUDY    60  42  51 NE12G20   30.03S
ROLLA          CLOUDY    52  50  93 NE13      30.00S FOG
OSAGE BEACH    CLOUDY    52  48  86 NE12      30.02S
SPRINGFIELD    CLOUDY    50  49  96 N12       29.97F
BRANSON        CLOUDY    50  50 100 N7        29.95F
JOPLIN         CLOUDY    52  49  89 NE13G25   30.00F
WEST PLAINS    CLOUDY    53  52  96 NE12      29.92F

$$

IAZ060-094-KSZ022-034>040-054-083-096-NEZ052-066-093-230600-
...KANSAS...SOUTHEAST NEBRASKA AND IOWA...

CITY           SKY/WX    TMP DP  RH WIND       PRES   REMARKS
TOPEKA         CLOUDY    59  46  62 N5        30.10F
MANHATTAN      CLOUDY    53  45  74 CALM      30.12R
EMPORIA        CLOUDY    55  46  71 N3        30.08F
CHANUTE        CLOUDY    55  47  74 NE10      30.06S
WICHITA        CLOUDY    54  46  74 NW7       30.10F
OMAHA          CLEAR     49  30  48 N10       30.17R
LINCOLN        CLEAR     48  32  53 NW5       30.17R
FALLS CITY     CLEAR     52  38  58 N3        30.12S
LAMONI         CLEAR     53  27  36 NE7       30.15S
DES MOINES     PTCLDY    56  30  37 E7        30.19R

$$





USA.gov is the U.S. government's official web portal to all federal, state and local government web resources and services.